This demonstration page uses our WeatherBlox Daily Observations layout. Learn more.

40.92945, -100.16068

Hourly Observations for January 25, 2019

Temp ( °F °C ) Dew Point ( °F °C ) Humidity (%) Winds ( mph kmh ) Pressure ( in mb ) Visibility ( mi km ) Precip ( " mm )
12:15 am 00:15 Clear 15 -9.5 10 -12.3 80 80 S 7 11 30.33 1027 10 16.09344 0 0
12:35 am 00:35 Clear 17 -8.6 12 -11.3 81 81 SW 8 13 30.33 1027 10 16.09344 0 0
12:55 am 00:55 Clear 17 -8.6 11 -11.5 80 80 SSW 7 11 30.33 1027 10 16.09344 0 0
1:15 am 01:15 Clear 16 -9.1 11 -11.6 82 82 SW 5 7 30.3 1026 10 16.09344 0 0
1:35 am 01:35 Clear 15 -9.5 11 -11.9 83 83 SW 5 7 30.3 1026 10 16.09344 0 0
1:55 am 01:55 Partly Cloudy 16 -9 11 -11.5 82 82 SW 5 7 30.3 1026 10 16.09344 0 0
2:15 am 02:15 Mostly Cloudy 17 -8.5 12 -10.9 83 83 WSW 6 9 30.3 1026 10 16.09344 0 0
2:35 am 02:35 Mostly Cloudy 16 -9 12 -11.3 84 84 W 5 7 30.3 1026 10 16.09344 0 0
2:55 am 02:55 Cloudy 17 -8.5 13 -10.8 84 84 WSW 5 7 30.27 1025 10 16.09344 0 0
3:15 am 03:15 Mostly Cloudy 19 -7.2 14 -9.9 81 81 WSW 7 11 30.24 1024 10 16.09344 0 0
3:35 am 03:35 Partly Cloudy 19 -7 14 -9.8 81 81 W 7 11 30.21 1023 10 16.09344 0 0
3:55 am 03:55 Clear 20 -6.9 15 -9.6 81 81 WSW 8 13 30.21 1023 10 16.09344 0 0
4:15 am 04:15 Clear 20 -6.5 15 -9.5 80 80 WSW 9 15 30.21 1023 10 16.09344 0 0
4:35 am 04:35 Mostly Cloudy 22 -5.8 16 -9 78 78 W 8 13 30.21 1023 10 16.09344 0 0
4:55 am 04:55 Mostly Cloudy 22 -5.4 17 -8.5 79 79 W 9 15 30.21 1023 10 16.09344 0 0
5:15 am 05:15 Cloudy 24 -4.6 18 -7.9 78 78 W 12 19 30.18 1022 10 16.09344 0 0
5:35 am 05:35 Cloudy 26 -3.6 19 -7.5 75 75 W 10 17 30.18 1022 10 16.09344 0 0
5:55 am 05:55 Mostly Cloudy 26 -3.5 18 -7.6 74 74 W 14 22 30.18 1022 10 16.09344 0 0
6:15 am 06:15 Cloudy 26 -3.3 18 -7.6 72 72 W 13 20 30.18 1022 10 16.09344 0 0
6:35 am 06:35 Mostly Cloudy 25 -3.7 18 -7.8 74 74 W 9 15 30.18 1022 10 16.09344 0 0
6:55 am 06:55 Partly Cloudy 24 -4.5 17 -8.1 76 76 W 8 13 30.18 1022 10 16.09344 0 0
7:15 am 07:15 Clear 23 -5.2 17 -8.6 77 77 WNW 8 13 30.21 1023 10 16.09344 0 0
7:35 am 07:35 Partly Cloudy 21 -6.1 16 -9.1 80 80 WNW 7 11 30.21 1023 10 16.09344 0 0
7:55 am 07:55 Cloudy 21 -6 16 -8.9 80 80 WNW 8 13 30.21 1023 10 16.09344 0 0
8:15 am 08:15 Mostly Cloudy 23 -5.1 17 -8.3 79 79 WNW 8 13 30.21 1023 10 16.09344 0 0
8:35 am 08:35 Sunny 24 -4.2 18 -7.6 77 77 WNW 7 11 30.18 1022 10 16.09344 0 0
8:55 am 08:55 Partly Cloudy 26 -3.5 19 -7.3 75 75 NW 7 11 30.18 1022 10 16.09344 0 0
9:15 am 09:15 Partly Cloudy 27 -2.7 20 -6.7 74 74 WNW 6 9 30.18 1022 10 16.09344 0 0
9:35 am 09:35 Sunny 29 -1.4 21 -6.2 70 70 WNW 10 17 30.15 1021 10 16.09344 0 0
9:55 am 09:55 Sunny 32 0.1 22 -5.7 65 65 WNW 10 17 30.15 1021 10 16.09344 0 0
10:15 am 10:15 Mostly Cloudy 34 1 21 -6.3 59 59 WNW 14 22 30.12 1020 10 16.09344 0 0
10:35 am 10:35 Cloudy 34 1.2 20 -6.5 57 57 NW 20 31 30.12 1020 10 16.09344 0 0
10:55 am 10:55 Cloudy 34 1.2 20 -6.4 57 57 NW 18 30 30.18 1022 10 16.09344 0 0
11:15 am 11:15 Cloudy 34 1.2 21 -6.3 58 58 WNW 17 28 30.18 1022 10 16.09344 0 0
11:35 am 11:35 Mostly Cloudy 36 2 21 -5.9 56 56 NW 16 26 30.12 1020 10 16.09344 0 0
11:55 am 11:55 Mostly Cloudy 37 3 22 -5.7 53 53 NW 16 26 30.12 1020 10 16.09344 0 0
12:15 pm 12:15 Mostly Cloudy 39 3.7 22 -5.6 51 51 WNW 17 28 30.12 1020 10 16.09344 0 0
12:35 pm 12:35 Cloudy 39 4 22 -5.3 51 51 NW 15 24 30.09 1019 10 16.09344 0 0
12:55 pm 12:55 Mostly Cloudy 40 4.6 23 -5 50 50 NW 13 20 30.09 1019 10 16.09344 0 0
1:15 pm 13:15 Mostly Cloudy 41 4.8 23 -4.9 50 50 NNW 9 15 30.09 1019 10 16.09344 0 0
1:35 pm 13:35 Cloudy with Light Snow 38 3.4 26 -3.2 62 62 N 18 30 30.12 1020 4 6.437376 0 0
1:55 pm 13:55 Cloudy 39 3.7 28 -2 67 67 N 13 20 30.12 1020 10 16.09344 0 0
2:15 pm 14:15 Cloudy 39 3.9 28 -2.3 64 64 NNW 10 17 30.12 1020 10 16.09344 0 0
2:35 pm 14:35 Cloudy 40 4.3 26 -3.2 59 59 NNW 9 15 30.09 1019 10 16.09344 0 0
2:55 pm 14:55 Cloudy 39 3.9 26 -3.6 58 58 N 6 9 30.12 1020 10 16.09344 0 0
3:15 pm 15:15 Mostly Cloudy 40 4.3 25 -3.7 56 56 NNW 6 9 30.09 1019 10 16.09344 0 0
3:35 pm 15:35 Mostly Cloudy 42 5.3 24 -4.7 49 49 N 7 11 30.09 1019 10 16.09344 0 0
3:55 pm 15:55 Cloudy 40 4.5 23 -4.9 51 51 N 8 13 30.09 1019 10 16.09344 0 0
4:15 pm 16:15 Cloudy 39 3.8 25 -4 57 57 NNE 8 13 30.12 1020 10 16.09344 0 0
4:35 pm 16:35 Partly Cloudy 39 4.1 24 -4.2 55 55 N 7 11 30.09 1019 10 16.09344 0 0
4:55 pm 16:55 Sunny 39 3.8 24 -4.5 55 55 Calm 30.12 1020 10 16.09344 0 0
5:15 pm 17:15 Sunny 38 3.1 25 -4 60 60 ENE 3 6 30.12 1020 10 16.09344 0 0
5:35 pm 17:35 Sunny 35 1.5 24 -4.2 66 66 E 6 9 30.12 1020 10 16.09344 0 0
5:55 pm 17:55 Partly Cloudy 34 1.1 25 -4 69 69 ENE 5 7 30.12 1020 10 16.09344 0 0
6:15 pm 18:15 Mostly Cloudy 33 0.8 25 -3.9 71 71 E 3 6 30.15 1021 10 16.09344 0 0
6:35 pm 18:35 Mostly Cloudy 33 0.6 24 -4.4 70 70 S 3 6 30.15 1021 10 16.09344 0 0
6:55 pm 18:55 Clear 29 -1.5 23 -4.9 78 78 S 7 11 30.15 1021 10 16.09344 0 0
7:15 pm 19:15 Clear 29 -1.6 23 -4.9 78 78 Calm 30.15 1021 10 16.09344 0 0
7:35 pm 19:35 Clear 30 -1.2 23 -4.8 77 77 ESE 3 6 30.15 1021 10 16.09344 0 0
7:55 pm 19:55 Clear 30 -1 24 -4.5 77 77 ENE 5 7 30.18 1022 10 16.09344 0 0
8:15 pm 20:15 Clear 30 -1.3 24 -4.3 80 80 E 6 9 30.18 1022 10 16.09344 0 0
8:35 pm 20:35 Partly Cloudy 28 -2 24 -4.5 83 83 ESE 5 7 30.21 1023 10 16.09344 0 0
8:55 pm 20:55 Mostly Cloudy 30 -1.2 25 -3.9 82 82 Calm 30.18 1022 10 16.09344 0 0
9:15 pm 21:15 Cloudy 31 -0.7 26 -3.5 82 82 SE 6 9 30.15 1021 10 16.09344 0 0
9:35 pm 21:35 Cloudy 31 -0.5 26 -3.5 80 80 SE 5 7 30.15 1021 10 16.09344 0 0
9:55 pm 21:55 Cloudy 30 -0.9 25 -3.7 82 82 S 5 7 30.15 1021 10 16.09344 0 0
10:15 pm 22:15 Cloudy 31 -0.7 26 -3.3 83 83 S 5 7 30.15 1021 10 16.09344 0 0
10:35 pm 22:35 Cloudy 29 -1.4 25 -3.7 85 85 SSE 5 7 30.15 1021 10 16.09344 0 0
10:55 pm 22:55 Cloudy 30 -1.1 26 -3.5 84 84 SSE 5 7 30.15 1021 10 16.09344 0 0
11:15 pm 23:15 Mostly Cloudy 28 -2 25 -4 86 86 E 3 6 30.18 1022 10 16.09344 0 0
11:35 pm 23:35 Mostly Cloudy 28 -2.2 25 -4.1 87 87 ENE 3 6 30.18 1022 10 16.09344 0 0
11:55 pm 23:55 Cloudy 28 -2.1 25 -3.7 89 89 ESE 3 6 30.18 1022 10 16.09344 0 0

Powered by AerisWeather